AIZ1814 LLER-LLBG

Flight info

Callsign AIZ1814
Flight time N/A
Altitude 18000
Route NURIT J10 TOMAL
Aircraft A21N/M-SDE2E3FGHIRWXY/LB1

Departure

Time 2026-04-26 16:54
Airport Ramon International Airport (LLER)

Arrival

Time N/A
Airport Ben Gurion International Airport (LLBG)
Time Latitude Longitude Altitude Speed Heading
2026-04-26 16:34 29.72494 35.00800 301 ft 0 kts 284°
2026-04-26 16:41 29.72492 35.00805 301 ft 2 kts 285°
2026-04-26 16:41 29.72489 35.00821 301 ft 2 kts 284°
2026-04-26 16:41 29.72485 35.00838 301 ft 2 kts 284°
2026-04-26 16:41 29.72483 35.00849 301 ft 1 kts 284°
2026-04-26 16:42 29.72481 35.00866 301 ft 2 kts 255°
2026-04-26 16:42 29.72488 35.00882 301 ft 2 kts 230°
2026-04-26 16:42 29.72499 35.00892 301 ft 2 kts 203°
2026-04-26 16:42 29.72506 35.00895 301 ft 1 kts 189°
2026-04-26 16:43 29.72511 35.00896 301 ft 0 kts 193°
2026-04-26 16:45 29.72504 35.00894 301 ft 3 kts 192°
2026-04-26 16:45 29.72450 35.00900 301 ft 9 kts 143°
2026-04-26 16:45 29.72419 35.00973 301 ft 11 kts 107°
2026-04-26 16:45 29.72403 35.01064 302 ft 11 kts 84°
2026-04-26 16:46 29.72467 35.01119 302 ft 12 kts 14°
2026-04-26 16:46 29.72555 35.01143 302 ft 13 kts 13°
2026-04-26 16:46 29.72648 35.01168 302 ft 14 kts 13°
2026-04-26 16:46 29.72746 35.01195 302 ft 14 kts 14°
2026-04-26 16:47 29.72847 35.01223 303 ft 15 kts 13°
2026-04-26 16:47 29.72951 35.01252 303 ft 15 kts 14°
2026-04-26 16:47 29.73077 35.01289 303 ft 21 kts 14°
2026-04-26 16:47 29.73228 35.01331 303 ft 21 kts 14°
2026-04-26 16:48 29.73386 35.01374 303 ft 24 kts 13°
2026-04-26 16:48 29.73550 35.01421 303 ft 23 kts 13°
2026-04-26 16:48 29.73707 35.01465 304 ft 22 kts 13°
2026-04-26 16:48 29.73861 35.01508 304 ft 22 kts 14°
2026-04-26 16:49 29.74007 35.01549 304 ft 21 kts 13°
2026-04-26 16:49 29.74152 35.01589 305 ft 21 kts 13°
2026-04-26 16:49 29.74292 35.01634 305 ft 19 kts 35°
2026-04-26 16:49 29.74320 35.01708 305 ft 0 kts 97°
2026-04-26 16:50 29.74320 35.01715 305 ft 1 kts 99°
2026-04-26 16:50 29.74316 35.01736 305 ft 3 kts 103°
2026-04-26 16:50 29.74315 35.01737 305 ft 0 kts 103°
2026-04-26 16:52 29.74315 35.01740 305 ft 1 kts 103°
2026-04-26 16:52 29.74307 35.01776 305 ft 15 kts 105°
2026-04-26 16:52 29.74187 35.01826 305 ft 16 kts 193°
2026-04-26 16:52 29.74077 35.01790 305 ft 16 kts 193°
2026-04-26 16:53 29.73961 35.01761 305 ft 17 kts 192°
2026-04-26 16:53 29.73608 35.01662 304 ft 95 kts 194°
2026-04-26 16:53 29.72709 35.01421 311 ft 166 kts 195°
2026-04-26 16:53 29.71483 35.01058 728 ft 191 kts 199°
2026-04-26 16:54 29.70225 35.00657 1715 ft 186 kts 195°
2026-04-26 16:54 29.69017 35.00337 2640 ft 185 kts 198°
2026-04-26 16:54 29.67927 34.99542 3285 ft 195 kts 238°
2026-04-26 16:54 29.67583 34.98025 3951 ft 208 kts 274°
2026-04-26 16:55 29.68128 34.96443 4558 ft 230 kts 311°
2026-04-26 16:55 29.69522 34.95499 5474 ft 242 kts 345°
2026-04-26 16:55 29.71198 34.95514 6460 ft 250 kts 15°
2026-04-26 16:55 29.72665 34.96538 7366 ft 259 kts 48°
2026-04-26 16:56 29.74480 35.00185 9270 ft 272 kts 63°
2026-04-26 16:56 29.75673 35.01846 10174 ft 280 kts 33°
2026-04-26 16:56 29.77510 35.02646 10941 ft 289 kts
2026-04-26 16:57 29.79574 35.02858 11597 ft 305 kts 359°
2026-04-26 16:57 29.81733 35.02971 12212 ft 324 kts 359°
2026-04-26 16:57 29.86502 35.03501 13385 ft 364 kts
2026-04-26 16:58 29.89081 35.03881 14060 ft 379 kts
2026-04-26 16:58 29.90840 35.04150 14672 ft 383 kts
2026-04-26 16:58 29.97091 35.05103 16768 ft 395 kts
2026-04-26 16:59 29.99826 35.05514 17498 ft 399 kts
2026-04-26 16:59 30.05389 35.06342 18100 ft 402 kts
2026-04-26 17:00 30.10907 35.07373 18108 ft 401 kts
2026-04-26 17:00 30.16258 35.09296 18100 ft 413 kts 26°
2026-04-26 17:00 30.18721 35.11050 18100 ft 414 kts 29°
2026-04-26 17:01 30.21188 35.12712 18102 ft 411 kts 21°
2026-04-26 17:01 30.23834 35.13943 18103 ft 408 kts 16°
2026-04-26 17:01 30.26515 35.15061 18107 ft 407 kts 15°
2026-04-26 17:01 30.29190 35.16079 18101 ft 406 kts 14°
2026-04-26 17:02 30.31876 35.17150 18094 ft 406 kts 15°
2026-04-26 17:02 30.34546 35.18226 18089 ft 406 kts 15°
2026-04-26 17:02 30.37228 35.19302 18084 ft 406 kts 15°
2026-04-26 17:02 30.39948 35.20213 18083 ft 401 kts